Location: Heisede
(52.2582°N, 9.8523°E)
Time: 20:54:45
(UTC+00:00)

ARIANE 5 R/B - Pass Details

Date: 13 January 2026
Orbit: 746 x 793 km, 98.8° (Epoch: 16 February)

Event Time Altitude Azimuth Distance (km) Brightness Sun altitude
Rises 06:11:21 0° 16° (NNE) 3,283 5.7 -10.7°
Reaches altitude 10° 06:13:42 10° 18° (NNE) 2,344 5.0 -10.3°
Maximum altitude 06:18:53 80° 105° (ESE) 791 2.7 -9.6°
Drops below altitude 10° 06:23:57 10° 193° (SSW) 2,296 5.1 -8.9°
Sets 06:26:14 0° 194° (SSW) 3,211 5.9 -8.6°
